Thunder radar more information blitzortung!


Rain radar more information rain snow radar


Visit our other weather sites:

Template documentation
and downloads

And another site



There are no active watches, warnings or advisories

Select another period ( hide this area )

Units Period Custom range Directly to
Metric English Both
Daily Weekly Monthly Yearly
use both date-selectors for a custom range
previous Day
With this date

WeatherUnderground graphs for this period ( click here )


Daily Summary for Tuesday Mar 26 2019
Time Temp. ( °C ) Dew pt. ( °C ) Wind ( km/h ) from Gust ( km/h ) Pressure ( hPa ) Humid.( % ) Rainrate ( cm )
High9,7 8,2 18,5 NW ( 237/693 ) 8,2 1021,2 95 0,51
Average7,8 6,9 7,4 NW #52/152 3,2 1019,2 94 0,00
Low6,3 5,6 -   0,0 1014,4 85 -
Daily Tabular details for Tuesday Mar 26 2019
Time Temp. ( °C ) Dew pt. ( °C ) Wind ( km/h ) from Gust ( km/h ) Pressure ( hPa ) Humid.( % ) Rainrate ( cm )
00:04 9,1 8,0 9,3 NW 4,3 1014,4 93 -
00:09 9,0 7,9 13,0 NNW 1,1 1014,4 93 -
00:14 9,0 7,9 5,6 WNW 4,0 1014,8 93 -
00:19 9,0 7,9 16,7 NW 4,0 1014,8 93 -
00:24 9,1 8,0 16,7 WNW 7,9 1014,8 93 -
00:29 9,1 8,0 18,5 NW 6,8 1014,4 93 -
00:35 9,1 8,1 16,7 ENE 8,2 1014,4 93 -
00:39 9,1 8,0 13,0 WNW 4,2 1014,8 93 -
00:44 9,1 8,0 13,0 NW 2,6 1014,8 93 -
00:49 9,1 8,0 9,3 SSW 3,9 1014,8 93 -
00:55 9,1 8,0 14,8 NW 3,1 1014,8 93 -
00:59 9,1 8,0 5,6 NW 7,1 1014,8 93 -
01:04 9,1 8,0 8,0 NNE 3,5 1014,8 93 -
01:10 9,1 8,0 5,6 WNW 3,2 1014,8 93 -
01:14 9,1 8,0 18,5 North 5,8 1014,8 93 0,25
01:19 9,1 8,0 9,7 WNW 7,9 1014,8 93 0,25
01:24 9,1 8,2 5,6 WNW 1,1 1014,8 94 0,25
01:30 9,0 8,1 16,7 NNW 7,9 1015,1 94 0,25
01:34 9,0 8,1 5,6 NW 2,3 1015,1 94 0,25
01:39 9,0 8,1 5,6 NNW 0,8 1015,1 94 0,25
01:44 9,0 8,1 3,7 North 1,9 1015,1 94 0,25
01:49 9,0 8,1 3,7 North 0,2 1015,1 94 0,25
01:54 8,9 8,1 1,9 North 0,6 1015,1 94 0,25
01:59 8,9 8,1 3,7 NNW 2,7 1015,1 94 0,25
02:04 8,9 8,1 9,3 North 5,8 1015,1 94 0,25
02:09 8,9 8,1 5,6 NNW 0,8 1015,1 94 0,25
02:14 8,9 8,1 3,7 NW 2,3 1015,5 94 -
02:19 8,9 8,1   Calm   1015,5 94 -
02:24 8,9 8,1 3,7 NW 2,3 1015,5 94 -
02:29 8,9 8,1 1,9 NW 0,3 1015,5 94 -
02:34 8,9 8,1 3,7 NW 0,3 1015,5 94 -
02:39 8,9 8,0 3,7 NNE 3,2 1015,5 94 -
02:44 8,9 8,0 5,6 NNW 3,4 1015,5 94 -
02:49 8,9 8,0 3,2 NW 2,3 1015,5 94 -
02:55 8,8 7,9 1,9 NNW 0,2 1015,5 94 -
02:59 8,8 7,9 5,6 WNW 2,6 1015,5 94 -
03:04 8,8 7,9 5,6 NW 1,1 1015,5 94 -
03:10 8,8 7,9 6,4 NNE 2,6 1015,5 94 -
03:14 8,7 7,8 5,6 NNW 2,9 1015,5 94 -
03:20 8,7 7,8 5,6 NNE 2,6 1015,5 94 -
03:24 8,7 7,8 5,6 NW 2,6 1015,5 94 -
03:29 8,6 7,7 7,4 NNW 1,9 1015,5 94 -
03:34 8,6 7,7 14,8 NW 3,7 1015,1 94 -
03:39 8,6 7,7 5,6 NW 1,8 1015,1 94 -
03:45 8,5 7,6 18,5 NW 6,4 1015,1 94 0,25
03:50 8,4 7,6 5,6 ENE 2,3 1015,5 94 0,25
03:54 8,4 7,5 5,6 NW 4,3 1015,5 94 0,25
03:59 8,3 7,4 5,6 NW 3,4 1015,5 94 0,51
04:04 8,3 7,4 11,1 North 4,7 1015,5 94 0,51
04:10 8,3 7,4 3,7 West 2,9 1015,5 94 0,51
04:14 8,2 7,3 7,4 North 3,2 1015,5 94 0,51
04:20 8,2 7,3 5,6 North 3,9 1015,8 94 0,51
04:24 8,1 7,2 7,4 NW 3,4 1015,8 94 0,51
04:29 8,1 7,2 5,6 NNW 2,1 1015,8 94 0,51
04:34 8,1 7,2 3,7 North 1,4 1015,8 94 0,51
04:39 8,0 7,1 1,9 NNW 1,3 1015,8 94 0,51
04:44 8,0 7,2 3,7 NW 2,3 1015,8 95 0,25
04:49 8,0 7,2 1,9 NW 0,3 1015,8 95 0,25
04:55 8,0 7,2 3,7 NW 0,8 1015,8 95 0,25
04:59 8,0 7,2 3,2 NW 0,5 1015,8 95 -
05:04 8,0 7,2 3,2 NW 1,1 1015,8 95 -
05:09 8,0 7,2 5,6 NNW 0,3 1016,1 95 -
05:15 7,9 7,2 1,9 WNW 0,5 1016,1 95 -
05:20 7,9 7,2 5,6 WNW 2,4 1016,1 95 -
05:24 7,9 7,1   Calm   1016,1 95 -
05:30 7,9 7,1 3,7 West 1,6 1016,1 95 -
05:34 7,8 7,0 8,0 NNW 2,9 1016,1 95 -
05:39 7,7 6,9 5,6 WNW 1,6 1016,1 95 -
05:44 7,6 6,9 3,7 NW 1,8 1016,5 95 -
05:49 7,6 6,9 6,4 NW 5,5 1016,5 95 -
05:55 7,6 6,8 3,7 NW 0,8 1016,5 95 -
05:59 7,6 6,8 5,6 NW 2,3 1016,8 95 -
06:04 7,5 6,8 3,7 NNW 2,1 1016,8 95 -
06:09 7,5 6,8 5,6 NW 2,3 1016,8 95 -
06:14 7,5 6,8 7,4 North 2,6 1017,2 95 -
06:19 7,4 6,7 7,4 WNW 1,9 1017,2 95 -
06:24 7,4 6,7 5,6 NW 1,6 1017,2 95 -
06:29 7,3 6,6 14,8 NW 4,3 1017,2 95 -
06:34 7,3 6,6 7,4 NNW 5,5 1017,5 95 -
06:39 7,3 6,6 6,4 North 4,3 1017,5 95 -
06:44 7,2 6,5 9,3 NW 2,9 1017,5 95 -
06:49 7,2 6,5 5,6 NW 2,1 1017,5 95 -
06:54 7,2 6,5 5,6 North 4,5 1017,5 95 -
06:59 7,2 6,4 5,6 North 4,2 1017,5 95 -
07:04 7,1 6,4 7,4 NW 4,2 1017,5 95 -
07:09 7,1 6,3 5,6 NW 1,9 1017,5 95 -
07:14 7,0 6,3 13,0 NNW 4,0 1017,5 95 -
07:19 6,9 6,2 3,7 NW 1,6 1017,8 95 -
07:24 6,9 6,2 5,6 WNW 1,6 1017,8 95 -
07:29 6,9 6,2 5,6 West 3,2 1017,8 95 -
07:34 6,8 6,1 7,4 NW 5,0 1017,8 95 -
07:39 6,7 6,0 16,7 NNW 4,2 1018,2 95 -
07:44 6,7 5,9 5,6 WNW 4,3 1018,2 95 -
07:49 6,6 5,9 18,5 WNW 4,0 1018,2 95 -
07:54 6,6 5,9 8,0 NE 4,7 1018,2 95 -
07:59 6,6 5,8 7,4 WNW 8,2 1018,5 95 -
08:04 6,5 5,8 14,8 NW 7,9 1018,5 95 -
08:09 6,5 5,8 7,4 WNW 2,3 1018,5 95 -
08:14 6,4 5,7 14,8 WNW 3,2 1018,5 95 -
08:19 6,4 5,7 14,8 WNW 2,6 1018,8 95 -
08:24 6,4 5,7 5,6 WNW 2,3 1018,8 95 -
08:29 6,4 5,7 7,4 WNW 3,9 1018,8 95 -
08:34 6,4 5,7 12,9 NW 8,2 1018,8 95 -
08:39 6,4 5,7 5,6 NNW 2,3 1018,8 95 -
08:44 6,4 5,7 5,6 NE 4,0 1019,2 95 -
08:49 6,4 5,7 17,7 NNW 3,2 1019,2 95 -
08:54 6,4 5,7 5,6 WNW 1,3 1019,2 95 -
08:59 6,4 5,7 3,7 WNW 0,8 1019,2 95 -
09:04 6,4 5,7 11,1 WNW 5,0 1019,2 95 -
09:09 6,3 5,6 7,4 WNW 2,9 1019,5 95 -
09:14 6,3 5,6 13,0 NW 3,7 1019,5 95 -
09:19 6,3 5,6 13,0 NNE 4,7 1019,5 95 -
09:24 6,3 5,6 9,3 NE 5,3 1019,5 95 -
09:29 6,3 5,6 6,4 WNW 2,9 1019,9 95 -
09:34 6,3 5,6 9,3 NW 5,0 1019,9 95 -
09:39 6,3 5,6 5,6 NNW 5,3 1019,9 95 -
09:44 6,4 5,7 4,8 NW 2,7 1019,9 95 -
09:49 6,4 5,7 9,3 NNW 3,1 1020,2 95 -
09:54 6,4 5,7 3,7 WNW 1,8 1020,2 95 -
09:59 6,4 5,7 5,6 North 3,2 1020,2 95 -
10:04 6,4 5,7 5,6 NNW 2,4 1020,2 95 -
10:09 6,4 5,7   Calm   1020,2 95 -
10:14 6,5 5,8 5,6 NW 2,9 1020,2 95 -
10:19 6,6 5,8 5,6 WNW 1,3 1020,5 95 -
10:24 6,7 5,9 5,6 NW 2,3 1020,5 95 -
10:29 6,7 5,9 5,6 NW 3,2 1020,5 95 -
10:34 6,8 6,1 5,6 NNW 2,4 1020,5 95 -
10:39 6,8 6,1 5,6 NNW 2,7 1020,5 95 -
10:44 6,9 6,2 5,6 NNW 3,4 1020,5 95 -
10:49 7,0 6,3 7,4 NW 3,7 1020,5 95 -
10:54 7,1 6,2 9,3 WNW 2,7 1020,9 94 -
10:59 7,2 6,3 6,4 WNW 5,1 1020,9 94 -
11:04 7,3 6,4 7,4 NW 5,5 1020,9 94 -
11:09 7,6 6,7 7,4 WNW 7,2 1020,9 94 -
11:14 7,7 6,8 5,6 WNW 4,5 1020,9 94 -
11:19 7,9 7,0 5,6 West 3,7 1020,9 94 -
11:24 8,1 7,0 6,4 WNW 7,6 1020,9 93 -
11:29 8,1 6,9 8,0 WNW 4,0 1020,9 92 -
11:34 8,2 7,0 5,6 NNE 3,4 1020,9 92 -
11:39 8,5 7,1 5,6 NW 5,3 1020,9 91 -
11:44 8,5 7,1 7,4 NE 6,1 1020,9 91 -
11:49 8,4 6,9 7,4 NNW 3,1 1021,2 90 -
11:54 8,4 6,9 9,3 North 3,9 1020,9 90 -
11:59 8,3 6,6 5,6 NW 4,2 1021,2 89 -
12:04 8,3 6,6 8,0 WNW 5,6 1021,2 89 -
12:09 8,4 6,7 5,6 NNW 3,9 1021,2 89 -
12:14 8,7 6,9 9,3 NW 5,5 1021,2 89 -
12:19 8,8 7,1 5,6 WNW 4,2 1021,2 89 -
12:24 9,1 7,1 7,4 WNW 5,0 1021,2 87 -
12:29 9,2 7,0 5,6 NW 1,8 1021,2 86 -
12:34 9,7 7,4 12,9 NNW 3,1 1021,2 86 -
12:39 9,6 7,2 12,9 West 6,3 1021,2 85 -
Daily Summary for Tuesday Mar 26 2019
Time Temp. ( °C ) Dew pt. ( °C ) Wind ( km/h ) from Gust ( km/h ) Pressure ( hPa ) Humid.( % ) Rainrate ( cm )
High9,7 8,2 18,5 NW ( 237/693 ) 8,2 1021,2 95 0,51
Average7,8 6,9 7,4 NW #52/152 3,2 1019,2 94 0,00
Low6,3 5,6 -   0,0 1014,4 85 -
Daily Tabular details for Tuesday Mar 26 2019
Time Temp. ( °C ) Dew pt. ( °C ) Wind ( km/h ) from Gust ( km/h ) Pressure ( hPa ) Humid.( % ) Rainrate ( cm )
00:04 9,1 8,0 9,3 NW 4,3 1014,4 93 -
00:09 9,0 7,9 13,0 NNW 1,1 1014,4 93 -
00:14 9,0 7,9 5,6 WNW 4,0 1014,8 93 -
00:19 9,0 7,9 16,7 NW 4,0 1014,8 93 -
00:24 9,1 8,0 16,7 WNW 7,9 1014,8 93 -
00:29 9,1 8,0 18,5 NW 6,8 1014,4 93 -
00:35 9,1 8,1 16,7 ENE 8,2 1014,4 93 -
00:39 9,1 8,0 13,0 WNW 4,2 1014,8 93 -
00:44 9,1 8,0 13,0 NW 2,6 1014,8 93 -
00:49 9,1 8,0 9,3 SSW 3,9 1014,8 93 -
00:55 9,1 8,0 14,8 NW 3,1 1014,8 93 -
00:59 9,1 8,0 5,6 NW 7,1 1014,8 93 -
01:04 9,1 8,0 8,0 NNE 3,5 1014,8 93 -
01:10 9,1 8,0 5,6 WNW 3,2 1014,8 93 -
01:14 9,1 8,0 18,5 North 5,8 1014,8 93 0,25
01:19 9,1 8,0 9,7 WNW 7,9 1014,8 93 0,25
01:24 9,1 8,2 5,6 WNW 1,1 1014,8 94 0,25
01:30 9,0 8,1 16,7 NNW 7,9 1015,1 94 0,25
01:34 9,0 8,1 5,6 NW 2,3 1015,1 94 0,25
01:39 9,0 8,1 5,6 NNW 0,8 1015,1 94 0,25
01:44 9,0 8,1 3,7 North 1,9 1015,1 94 0,25
01:49 9,0 8,1 3,7 North 0,2 1015,1 94 0,25
01:54 8,9 8,1 1,9 North 0,6 1015,1 94 0,25
01:59 8,9 8,1 3,7 NNW 2,7 1015,1 94 0,25
02:04 8,9 8,1 9,3 North 5,8 1015,1 94 0,25
02:09 8,9 8,1 5,6 NNW 0,8 1015,1 94 0,25
02:14 8,9 8,1 3,7 NW 2,3 1015,5 94 -
02:19 8,9 8,1   Calm   1015,5 94 -
02:24 8,9 8,1 3,7 NW 2,3 1015,5 94 -
02:29 8,9 8,1 1,9 NW 0,3 1015,5 94 -
02:34 8,9 8,1 3,7 NW 0,3 1015,5 94 -
02:39 8,9 8,0 3,7 NNE 3,2 1015,5 94 -
02:44 8,9 8,0 5,6 NNW 3,4 1015,5 94 -
02:49 8,9 8,0 3,2 NW 2,3 1015,5 94 -
02:55 8,8 7,9 1,9 NNW 0,2 1015,5 94 -
02:59 8,8 7,9 5,6 WNW 2,6 1015,5 94 -
03:04 8,8 7,9 5,6 NW 1,1 1015,5 94 -
03:10 8,8 7,9 6,4 NNE 2,6 1015,5 94 -
03:14 8,7 7,8 5,6 NNW 2,9 1015,5 94 -
03:20 8,7 7,8 5,6 NNE 2,6 1015,5 94 -
03:24 8,7 7,8 5,6 NW 2,6 1015,5 94 -
03:29 8,6 7,7 7,4 NNW 1,9 1015,5 94 -
03:34 8,6 7,7 14,8 NW 3,7 1015,1 94 -
03:39 8,6 7,7 5,6 NW 1,8 1015,1 94 -
03:45 8,5 7,6 18,5 NW 6,4 1015,1 94 0,25
03:50 8,4 7,6 5,6 ENE 2,3 1015,5 94 0,25
03:54 8,4 7,5 5,6 NW 4,3 1015,5 94 0,25
03:59 8,3 7,4 5,6 NW 3,4 1015,5 94 0,51
04:04 8,3 7,4 11,1 North 4,7 1015,5 94 0,51
04:10 8,3 7,4 3,7 West 2,9 1015,5 94 0,51
04:14 8,2 7,3 7,4 North 3,2 1015,5 94 0,51
04:20 8,2 7,3 5,6 North 3,9 1015,8 94 0,51
04:24 8,1 7,2 7,4 NW 3,4 1015,8 94 0,51
04:29 8,1 7,2 5,6 NNW 2,1 1015,8 94 0,51
04:34 8,1 7,2 3,7 North 1,4 1015,8 94 0,51
04:39 8,0 7,1 1,9 NNW 1,3 1015,8 94 0,51
04:44 8,0 7,2 3,7 NW 2,3 1015,8 95 0,25
04:49 8,0 7,2 1,9 NW 0,3 1015,8 95 0,25
04:55 8,0 7,2 3,7 NW 0,8 1015,8 95 0,25
04:59 8,0 7,2 3,2 NW 0,5 1015,8 95 -
05:04 8,0 7,2 3,2 NW 1,1 1015,8 95 -
05:09 8,0 7,2 5,6 NNW 0,3 1016,1 95 -
05:15 7,9 7,2 1,9 WNW 0,5 1016,1 95 -
05:20 7,9 7,2 5,6 WNW 2,4 1016,1 95 -
05:24 7,9 7,1   Calm   1016,1 95 -
05:30 7,9 7,1 3,7 West 1,6 1016,1 95 -
05:34 7,8 7,0 8,0 NNW 2,9 1016,1 95 -
05:39 7,7 6,9 5,6 WNW 1,6 1016,1 95 -
05:44 7,6 6,9 3,7 NW 1,8 1016,5 95 -
05:49 7,6 6,9 6,4 NW 5,5 1016,5 95 -
05:55 7,6 6,8 3,7 NW 0,8 1016,5 95 -
05:59 7,6 6,8 5,6 NW 2,3 1016,8 95 -
06:04 7,5 6,8 3,7 NNW 2,1 1016,8 95 -
06:09 7,5 6,8 5,6 NW 2,3 1016,8 95 -
06:14 7,5 6,8 7,4 North 2,6 1017,2 95 -
06:19 7,4 6,7 7,4 WNW 1,9 1017,2 95 -
06:24 7,4 6,7 5,6 NW 1,6 1017,2 95 -
06:29 7,3 6,6 14,8 NW 4,3 1017,2 95 -
06:34 7,3 6,6 7,4 NNW 5,5 1017,5 95 -
06:39 7,3 6,6 6,4 North 4,3 1017,5 95 -
06:44 7,2 6,5 9,3 NW 2,9 1017,5 95 -
06:49 7,2 6,5 5,6 NW 2,1 1017,5 95 -
06:54 7,2 6,5 5,6 North 4,5 1017,5 95 -
06:59 7,2 6,4 5,6 North 4,2 1017,5 95 -
07:04 7,1 6,4 7,4 NW 4,2 1017,5 95 -
07:09 7,1 6,3 5,6 NW 1,9 1017,5 95 -
07:14 7,0 6,3 13,0 NNW 4,0 1017,5 95 -
07:19 6,9 6,2 3,7 NW 1,6 1017,8 95 -
07:24 6,9 6,2 5,6 WNW 1,6 1017,8 95 -
07:29 6,9 6,2 5,6 West 3,2 1017,8 95 -
07:34 6,8 6,1 7,4 NW 5,0 1017,8 95 -
07:39 6,7 6,0 16,7 NNW 4,2 1018,2 95 -
07:44 6,7 5,9 5,6 WNW 4,3 1018,2 95 -
07:49 6,6 5,9 18,5 WNW 4,0 1018,2 95 -
07:54 6,6 5,9 8,0 NE 4,7 1018,2 95 -
07:59 6,6 5,8 7,4 WNW 8,2 1018,5 95 -
08:04 6,5 5,8 14,8 NW 7,9 1018,5 95 -
08:09 6,5 5,8 7,4 WNW 2,3 1018,5 95 -
08:14 6,4 5,7 14,8 WNW 3,2 1018,5 95 -
08:19 6,4 5,7 14,8 WNW 2,6 1018,8 95 -
08:24 6,4 5,7 5,6 WNW 2,3 1018,8 95 -
08:29 6,4 5,7 7,4 WNW 3,9 1018,8 95 -
08:34 6,4 5,7 12,9 NW 8,2 1018,8 95 -
08:39 6,4 5,7 5,6 NNW 2,3 1018,8 95 -
08:44 6,4 5,7 5,6 NE 4,0 1019,2 95 -
08:49 6,4 5,7 17,7 NNW 3,2 1019,2 95 -
08:54 6,4 5,7 5,6 WNW 1,3 1019,2 95 -
08:59 6,4 5,7 3,7 WNW 0,8 1019,2 95 -
09:04 6,4 5,7 11,1 WNW 5,0 1019,2 95 -
09:09 6,3 5,6 7,4 WNW 2,9 1019,5 95 -
09:14 6,3 5,6 13,0 NW 3,7 1019,5 95 -
09:19 6,3 5,6 13,0 NNE 4,7 1019,5 95 -
09:24 6,3 5,6 9,3 NE 5,3 1019,5 95 -
09:29 6,3 5,6 6,4 WNW 2,9 1019,9 95 -
09:34 6,3 5,6 9,3 NW 5,0 1019,9 95 -
09:39 6,3 5,6 5,6 NNW 5,3 1019,9 95 -
09:44 6,4 5,7 4,8 NW 2,7 1019,9 95 -
09:49 6,4 5,7 9,3 NNW 3,1 1020,2 95 -
09:54 6,4 5,7 3,7 WNW 1,8 1020,2 95 -
09:59 6,4 5,7 5,6 North 3,2 1020,2 95 -
10:04 6,4 5,7 5,6 NNW 2,4 1020,2 95 -
10:09 6,4 5,7   Calm   1020,2 95 -
10:14 6,5 5,8 5,6 NW 2,9 1020,2 95 -
10:19 6,6 5,8 5,6 WNW 1,3 1020,5 95 -
10:24 6,7 5,9 5,6 NW 2,3 1020,5 95 -
10:29 6,7 5,9 5,6 NW 3,2 1020,5 95 -
10:34 6,8 6,1 5,6 NNW 2,4 1020,5 95 -
10:39 6,8 6,1 5,6 NNW 2,7 1020,5 95 -
10:44 6,9 6,2 5,6 NNW 3,4 1020,5 95 -
10:49 7,0 6,3 7,4 NW 3,7 1020,5 95 -
10:54 7,1 6,2 9,3 WNW 2,7 1020,9 94 -
10:59 7,2 6,3 6,4 WNW 5,1 1020,9 94 -
11:04 7,3 6,4 7,4 NW 5,5 1020,9 94 -
11:09 7,6 6,7 7,4 WNW 7,2 1020,9 94 -
11:14 7,7 6,8 5,6 WNW 4,5 1020,9 94 -
11:19 7,9 7,0 5,6 West 3,7 1020,9 94 -
11:24 8,1 7,0 6,4 WNW 7,6 1020,9 93 -
11:29 8,1 6,9 8,0 WNW 4,0 1020,9 92 -
11:34 8,2 7,0 5,6 NNE 3,4 1020,9 92 -
11:39 8,5 7,1 5,6 NW 5,3 1020,9 91 -
11:44 8,5 7,1 7,4 NE 6,1 1020,9 91 -
11:49 8,4 6,9 7,4 NNW 3,1 1021,2 90 -
11:54 8,4 6,9 9,3 North 3,9 1020,9 90 -
11:59 8,3 6,6 5,6 NW 4,2 1021,2 89 -
12:04 8,3 6,6 8,0 WNW 5,6 1021,2 89 -
12:09 8,4 6,7 5,6 NNW 3,9 1021,2 89 -
12:14 8,7 6,9 9,3 NW 5,5 1021,2 89 -
12:19 8,8 7,1 5,6 WNW 4,2 1021,2 89 -
12:24 9,1 7,1 7,4 WNW 5,0 1021,2 87 -
12:29 9,2 7,0 5,6 NW 1,8 1021,2 86 -
12:34 9,7 7,4 12,9 NNW 3,1 1021,2 86 -
12:39 9,6 7,2 12,9 West 6,3 1021,2 85 -

Download your copy of this data-set  here

Our weather-data as stored at Weather Underground. Script developed by Jim McMurry. Adapted for the template by Leuven-Template.eu

You find our weather info also at:

Weather Underground

AWEKAS

Citizen Weather Observer Program (CWOP)

HAMweather, WeatherForYou, PWS Weather

Equipment we use:

Weather-station
Davis VP2

Weather-program
Weather Display

Weather-server
HP ProDesk 600 G1

Provider
1&1 IONOS

Davis VP2

Weather Display

HP ProDesk 600 G1

1&1 IONOS